Content
SEND FEEDBACK

Daily
Averages
Monthly
Summary
United States of America

BROWNSVILLE, TENNESSEE


Home > North America > United States > Tennessee
Elevation: 369 feet     Latitude: 35 35N     Longitude: 089 15W

WEATHER
 
SELECT A DAY
Number of Records: 207,987;   Date Range: 1/1/95 - 8/12/14
 
SHARE

PRINT THIS DATA

[ ← Previous Day ]
WEATHER ALMANAC - JANUARY 23, 2013
[ Next Day → ]
[ °C ]   °F
Weather ElementAverageHighLow
Temperature39.5 °F55.9 °F (1:53 pm)24.1 °F (2:53 am)
Dewpoint27.2 °F36 °F (2:53 pm)16 °F (5:53 am)
Humidity63.6 %89 % (11:53 pm)43 % (12:53 pm)
Barometer30.28 in30.38 in (1:53 am)30.19 in (2:53 pm)
Wind Speed3.8 mph11.5 mph (3:53 pm)
Weather ElementAverage
Visibility10 mi
Wind DirectionESE (125.2 °)

Weather ElementTotal
Precipitation---
Heating Degree Days25 (Base 65)
Averaged from 21 records on January 23, 2013
WEATHER CONDITIONS BREAKOUT
WIND DIRECTION BREAKOUT
WEATHER BY HOUR - JANUARY 23, 2013
[ °C ]   °F
Local TimeTemperatureDewpointHumidityBarometerVisibilityWind DirectionWind SpeedGust SpeedPrecipitationEventsConditions
1:53 AM26.1 °F19.0 °F75 %30.38 in10.0 miCalmClear
2:53 AM24.1 °F18.0 °F77 %30.38 in10.0 miCalmClear
3:53 AM26.1 °F21.0 °F81 %30.37 in10.0 miCalmOvercast
4:53 AM24.1 °F18.0 °F77 %30.36 in10.0 miCalmClear
5:53 AM25.0 °F16.0 °F69 %30.36 in10.0 miESE (120°)3.5 mphClear
6:53 AM25.0 °F17.1 °F72 %30.36 in10.0 miCalmClear
7:53 AM28.0 °F19.9 °F72 %30.36 in10.0 miCalmClear
8:53 AM36.0 °F21.0 °F55 %30.36 in10.0 miSouth (170°)3.5 mphClear
9:53 AM43.0 °F23.0 °F45 %30.35 in10.0 miSSW (200°)4.6 mphClear
10:53 AM48.0 °F28.0 °F46 %30.32 in10.0 miWSW (240°)9.2 mphClear
11:53 AM48.0 °F28.0 °F46 %30.28 in10.0 miWSW (250°)5.8 mphPartly Cloudy
12:53 PM53.1 °F30.9 °F43 %30.24 in10.0 miWSW (240°)8.1 mphClear
1:53 PM55.9 °F35.1 °F45 %30.22 in10.0 miWSW (250°)8.1 mphClear
2:53 PM55.9 °F36.0 °F47 %30.19 in10.0 miWSW (240°)6.9 mphClear
3:53 PM54.0 °F36.0 °F51 %30.19 in10.0 miWSW (250°)11.5 mphClear
4:53 PM50.0 °F36.0 °F59 %30.19 in10.0 miWSW (240°)5.8 mphClear
5:53 PM45.0 °F35.1 °F68 %30.19 in10.0 miCalmClear
6:53 PM44.1 °F34.0 °F68 %30.19 in10.0 miSSW (210°)5.8 mphClear
7:53 PM43.0 °F34.0 °F71 %30.19 in10.0 miSW (220°)6.9 mphClear
9:53 PM39.0 °F33.1 °F79 %30.23 in10.0 miCalmClear
11:53 PM35.1 °F32.0 °F89 %30.24 in10.0 miCalmClear
Hourly data recorded from KMKL, located miles away from Brownsville, Tennessee







STORIES FROM OUR PARTNERS